CRA017 SKBO-SKBQ

Flight info

Callsign CRA017
Flight time 1h 5m
Altitude 30000
Route GIKPU YACAR ISOTO ISOT5A
Aircraft PMDG/M-V/N

Departure

Time 2026-05-09 01:23
Airport El Dorado International Airport (SKBO)

Arrival

Time 2026-05-09 02:29
Airport Ernesto Cortissoz International Airport (SKBQ)
Time Latitude Longitude Altitude Speed Heading
2026-05-09 01:03 4.69857 -74.13940 8368 ft 0 kts 217°
2026-05-09 01:10 4.69859 -74.13938 8368 ft 1 kts 217°
2026-05-09 01:10 4.69874 -74.13927 8368 ft 3 kts 218°
2026-05-09 01:11 4.69889 -74.13914 8368 ft 3 kts 221°
2026-05-09 01:11 4.69904 -74.13901 8368 ft 3 kts 230°
2026-05-09 01:11 4.69914 -74.13884 8368 ft 3 kts 263°
2026-05-09 01:11 4.69913 -74.13873 8368 ft 1 kts 307°
2026-05-09 01:12 4.69913 -74.13872 8368 ft 0 kts 307°
2026-05-09 01:15 4.69917 -74.13878 8368 ft 3 kts 307°
2026-05-09 01:15 4.69940 -74.13908 8368 ft 7 kts 307°
2026-05-09 01:16 4.69978 -74.13958 8368 ft 10 kts 307°
2026-05-09 01:16 4.70040 -74.13996 8368 ft 12 kts
2026-05-09 01:16 4.70109 -74.13968 8368 ft 9 kts 28°
2026-05-09 01:17 4.70220 -74.14043 8368 ft 13 kts 307°
2026-05-09 01:17 4.70277 -74.14124 8368 ft 15 kts 307°
2026-05-09 01:17 4.70343 -74.14213 8368 ft 17 kts 307°
2026-05-09 01:17 4.70415 -74.14309 8368 ft 17 kts 307°
2026-05-09 01:18 4.70488 -74.14408 8368 ft 18 kts 307°
2026-05-09 01:18 4.70567 -74.14505 8368 ft 18 kts 308°
2026-05-09 01:18 4.70643 -74.14605 8368 ft 18 kts 307°
2026-05-09 01:18 4.70720 -74.14708 8368 ft 19 kts 307°
2026-05-09 01:19 4.70800 -74.14813 8368 ft 19 kts 307°
2026-05-09 01:19 4.70880 -74.14918 8368 ft 19 kts 307°
2026-05-09 01:19 4.70962 -74.15025 8368 ft 19 kts 307°
2026-05-09 01:19 4.71017 -74.15099 8368 ft 10 kts 307°
2026-05-09 01:20 4.71060 -74.15156 8368 ft 11 kts 307°
2026-05-09 01:20 4.71097 -74.15201 8368 ft 9 kts 317°
2026-05-09 01:20 4.71154 -74.15223 8368 ft 9 kts 354°
2026-05-09 01:20 4.71216 -74.15229 8368 ft 9 kts 356°
2026-05-09 01:21 4.71267 -74.15223 8368 ft 6 kts 17°
2026-05-09 01:21 4.71303 -74.15202 8368 ft 5 kts 43°
2026-05-09 01:21 4.71309 -74.15170 8368 ft 5 kts 103°
2026-05-09 01:21 4.71291 -74.15139 8368 ft 3 kts 125°
2026-05-09 01:22 4.71288 -74.15135 8368 ft 1 kts 125°
2026-05-09 01:22 4.71281 -74.15125 8368 ft 2 kts 125°
2026-05-09 01:22 4.71266 -74.15103 8368 ft 12 kts 125°
2026-05-09 01:22 4.71036 -74.14795 8368 ft 97 kts 128°
2026-05-09 01:23 4.70476 -74.14069 8371 ft 168 kts 127°
2026-05-09 01:23 4.69689 -74.13031 8847 ft 197 kts 127°
2026-05-09 01:23 4.68879 -74.11961 10026 ft 190 kts 127°
2026-05-09 01:23 4.68224 -74.10790 10800 ft 201 kts 108°
2026-05-09 01:24 4.68203 -74.09313 11103 ft 226 kts 77°
2026-05-09 01:24 4.68981 -74.07859 11405 ft 251 kts 48°
2026-05-09 01:24 4.70426 -74.06856 12011 ft 264 kts 24°
2026-05-09 01:24 4.72252 -74.06357 12674 ft 281 kts 11°
2026-05-09 01:25 4.74224 -74.05913 13226 ft 302 kts 13°
2026-05-09 01:25 4.76337 -74.05405 13728 ft 324 kts 13°
2026-05-09 01:25 4.78603 -74.04863 14236 ft 344 kts 13°
2026-05-09 01:25 4.80959 -74.04303 15012 ft 353 kts 13°
2026-05-09 01:26 4.83375 -74.03730 15945 ft 358 kts 13°
2026-05-09 01:26 4.85816 -74.03153 16858 ft 363 kts 13°
2026-05-09 01:26 4.88302 -74.02566 17750 ft 368 kts 13°
2026-05-09 01:26 4.90780 -74.01982 18607 ft 373 kts 13°
2026-05-09 01:27 4.93325 -74.01382 19456 ft 378 kts 13°
2026-05-09 01:27 4.95934 -74.00768 20283 ft 383 kts 13°
2026-05-09 01:27 4.98499 -74.00165 21064 ft 388 kts 13°
2026-05-09 01:27 5.01150 -73.99541 21830 ft 392 kts 13°
2026-05-09 01:28 5.03827 -73.98911 22556 ft 397 kts 13°
2026-05-09 01:28 5.06518 -73.98279 23255 ft 401 kts 13°
2026-05-09 01:28 5.09264 -73.97634 23938 ft 406 kts 13°
2026-05-09 01:28 5.12027 -73.96985 24590 ft 410 kts 13°
2026-05-09 01:29 5.14795 -73.96334 25209 ft 414 kts 13°
2026-05-09 01:29 5.17613 -73.95671 25816 ft 418 kts 13°
2026-05-09 01:29 5.20469 -73.95000 26398 ft 422 kts 13°
2026-05-09 01:29 5.23303 -73.94333 26982 ft 424 kts 13°
2026-05-09 01:30 5.26170 -73.93659 27718 ft 422 kts 13°
2026-05-09 01:30 5.29014 -73.92989 28472 ft 420 kts 13°
2026-05-09 01:30 5.31854 -73.92321 29148 ft 419 kts 13°
2026-05-09 01:30 5.34704 -73.91651 29702 ft 421 kts 13°
2026-05-09 01:31 5.37560 -73.90979 29957 ft 423 kts 13°
2026-05-09 01:31 5.40453 -73.90298 29994 ft 432 kts 13°
2026-05-09 01:31 5.43414 -73.89601 30003 ft 443 kts 13°
2026-05-09 01:31 5.46448 -73.88887 30007 ft 452 kts 13°
2026-05-09 01:32 5.52646 -73.87427 30007 ft 468 kts 13°
2026-05-09 01:32 5.59057 -73.85917 30007 ft 474 kts 13°
2026-05-09 01:33 5.65444 -73.84413 30006 ft 472 kts 13°
2026-05-09 01:33 5.71863 -73.82901 30006 ft 473 kts 13°
2026-05-09 01:34 5.78212 -73.81405 30006 ft 473 kts 13°
2026-05-09 01:34 5.84609 -73.79897 30006 ft 473 kts 13°
2026-05-09 01:35 5.91004 -73.78389 30006 ft 473 kts 13°
2026-05-09 01:35 5.97424 -73.76874 30006 ft 473 kts 13°
2026-05-09 01:36 6.03838 -73.75365 30006 ft 473 kts 13°
2026-05-09 01:36 6.10238 -73.74062 30006 ft 473 kts 11°
2026-05-09 01:37 6.16722 -73.72751 30006 ft 473 kts 11°
2026-05-09 01:37 6.23128 -73.71440 30006 ft 473 kts 11°
2026-05-09 01:38 6.29573 -73.70115 30006 ft 473 kts 11°
2026-05-09 01:38 6.35569 -73.68881 30006 ft 473 kts 11°
2026-05-09 01:39 6.42004 -73.67556 30006 ft 473 kts 11°
2026-05-09 01:39 6.48453 -73.66227 30006 ft 473 kts 12°
2026-05-09 01:40 6.54904 -73.64905 30006 ft 473 kts 11°
2026-05-09 01:40 6.61309 -73.63592 30006 ft 473 kts 11°
2026-05-09 01:41 6.67750 -73.62271 30006 ft 473 kts 11°
2026-05-09 01:41 6.74207 -73.60947 30006 ft 473 kts 11°
2026-05-09 01:42 6.80647 -73.59625 30006 ft 473 kts 11°
2026-05-09 01:42 6.87069 -73.58305 30006 ft 473 kts 11°
2026-05-09 01:43 6.93506 -73.56984 30006 ft 473 kts 11°
2026-05-09 01:43 7.00044 -73.56248 30006 ft 473 kts
2026-05-09 01:44 7.06616 -73.56449 30006 ft 473 kts 356°
2026-05-09 01:44 7.13200 -73.56807 30006 ft 473 kts 357°
2026-05-09 01:45 7.19733 -73.57133 30006 ft 473 kts 357°
2026-05-09 01:45 7.26304 -73.57451 30006 ft 473 kts 357°
2026-05-09 01:46 7.32867 -73.58162 30007 ft 473 kts 349°
2026-05-09 01:46 7.39160 -73.59517 30006 ft 473 kts 347°
2026-05-09 01:47 7.45551 -73.60950 30006 ft 473 kts 347°
2026-05-09 01:47 7.51966 -73.62389 30006 ft 473 kts 347°
2026-05-09 01:48 7.58387 -73.63829 30006 ft 473 kts 347°
2026-05-09 01:48 7.64812 -73.65270 30006 ft 473 kts 347°
2026-05-09 01:49 7.66993 -73.65759 30006 ft 473 kts 347°
2026-05-09 01:49 7.72837 -73.67068 30006 ft 473 kts 347°
2026-05-09 01:50 7.79272 -73.68511 30006 ft 473 kts 347°
2026-05-09 01:50 7.85682 -73.69949 30006 ft 473 kts 347°
2026-05-09 01:51 7.89780 -73.70869 30006 ft 473 kts 347°
2026-05-09 01:51 7.96208 -73.72312 30006 ft 473 kts 347°
2026-05-09 01:52 8.02642 -73.73757 30006 ft 473 kts 347°
2026-05-09 01:52 8.09065 -73.75200 30006 ft 473 kts 347°
2026-05-09 01:53 8.15454 -73.76636 30006 ft 473 kts 347°
2026-05-09 01:53 8.21853 -73.78074 30006 ft 473 kts 347°
2026-05-09 01:54 8.28324 -73.79530 30006 ft 473 kts 347°
2026-05-09 01:54 8.34701 -73.80964 30006 ft 473 kts 347°
2026-05-09 01:55 8.41123 -73.82410 30006 ft 472 kts 347°
2026-05-09 01:55 8.47555 -73.83858 30006 ft 472 kts 347°
2026-05-09 01:56 8.53969 -73.85302 30006 ft 472 kts 347°
2026-05-09 01:56 8.60394 -73.86750 30006 ft 472 kts 347°
2026-05-09 01:57 8.66777 -73.88188 30006 ft 472 kts 347°
2026-05-09 01:57 8.73190 -73.89634 30006 ft 472 kts 347°
2026-05-09 01:58 8.79603 -73.91079 30006 ft 472 kts 347°
2026-05-09 01:58 8.86026 -73.92528 30006 ft 472 kts 347°
2026-05-09 01:59 8.92418 -73.93971 30006 ft 472 kts 347°
2026-05-09 01:59 8.98845 -73.95422 30006 ft 472 kts 347°
2026-05-09 02:00 9.05043 -73.97578 30006 ft 472 kts 334°
2026-05-09 02:00 9.10593 -74.01038 30006 ft 472 kts 324°
2026-05-09 02:01 9.15880 -74.04973 30006 ft 472 kts 323°
2026-05-09 02:01 9.21183 -74.08902 30006 ft 472 kts 324°
2026-05-09 02:02 9.26476 -74.12799 30006 ft 472 kts 324°
2026-05-09 02:02 9.31788 -74.16703 30006 ft 472 kts 324°
2026-05-09 02:03 9.37118 -74.20609 30006 ft 472 kts 324°
2026-05-09 02:03 9.42434 -74.24509 30006 ft 472 kts 324°
2026-05-09 02:04 9.47738 -74.28404 30006 ft 472 kts 324°
2026-05-09 02:04 9.53069 -74.32320 30006 ft 472 kts 324°
2026-05-09 02:05 9.55675 -74.34235 30003 ft 453 kts 324°
2026-05-09 02:05 9.58179 -74.36076 30002 ft 434 kts 324°
2026-05-09 02:05 9.62965 -74.39595 30005 ft 419 kts 324°
2026-05-09 02:06 9.65285 -74.41301 29820 ft 417 kts 324°
2026-05-09 02:06 9.67607 -74.43007 29507 ft 410 kts 324°
2026-05-09 02:06 9.69911 -74.44699 28975 ft 407 kts 324°
2026-05-09 02:07 9.74467 -74.48052 27882 ft 402 kts 324°
2026-05-09 02:07 9.76728 -74.49717 27341 ft 399 kts 324°
2026-05-09 02:07 9.78966 -74.51366 26807 ft 396 kts 324°
2026-05-09 02:07 9.81185 -74.53001 26277 ft 393 kts 324°
2026-05-09 02:08 9.83395 -74.54629 25747 ft 390 kts 324°
2026-05-09 02:08 9.85581 -74.56241 25223 ft 387 kts 324°
2026-05-09 02:08 9.87756 -74.57844 24701 ft 385 kts 324°
2026-05-09 02:08 9.89925 -74.59436 24177 ft 382 kts 325°
2026-05-09 02:09 9.92170 -74.60805 23667 ft 379 kts 333°
2026-05-09 02:09 9.94608 -74.61852 23148 ft 376 kts 341°
2026-05-09 02:09 9.97042 -74.62645 22639 ft 374 kts 343°
2026-05-09 02:09 9.99567 -74.63384 22119 ft 371 kts 344°
2026-05-09 02:10 10.02049 -74.64090 21609 ft 369 kts 344°
2026-05-09 02:10 10.04505 -74.64787 21108 ft 366 kts 344°
2026-05-09 02:10 10.06944 -74.65478 20606 ft 363 kts 344°
2026-05-09 02:10 10.09369 -74.66164 20104 ft 361 kts 344°
2026-05-09 02:11 10.11791 -74.66849 19601 ft 358 kts 344°
2026-05-09 02:11 10.14183 -74.67526 19099 ft 356 kts 344°
2026-05-09 02:11 10.16554 -74.68197 18599 ft 353 kts 344°
2026-05-09 02:11 10.18912 -74.68863 18098 ft 351 kts 344°
2026-05-09 02:12 10.21265 -74.69529 17594 ft 348 kts 344°
2026-05-09 02:12 10.23597 -74.70188 17092 ft 346 kts 344°
2026-05-09 02:12 10.25911 -74.70842 16589 ft 344 kts 344°
2026-05-09 02:12 10.28179 -74.71482 16093 ft 341 kts 344°
2026-05-09 02:13 10.30453 -74.72123 15592 ft 339 kts 344°
2026-05-09 02:13 10.32755 -74.72773 15080 ft 337 kts 344°
2026-05-09 02:13 10.34935 -74.73593 14567 ft 334 kts 330°
2026-05-09 02:13 10.36679 -74.75071 14090 ft 331 kts 311°
2026-05-09 02:14 10.38098 -74.76904 13682 ft 326 kts 307°
2026-05-09 02:14 10.39283 -74.78526 13376 ft 320 kts 306°
2026-05-09 02:14 10.40168 -74.79738 13151 ft 315 kts 306°
2026-05-09 02:14 10.41459 -74.81507 12948 ft 304 kts 306°
2026-05-09 02:15 10.42691 -74.83193 12808 ft 292 kts 306°
2026-05-09 02:15 10.43898 -74.84847 12475 ft 287 kts 306°
2026-05-09 02:15 10.45069 -74.86449 12075 ft 286 kts 307°
2026-05-09 02:15 10.46266 -74.88087 11669 ft 284 kts 307°
2026-05-09 02:16 10.47424 -74.89671 11273 ft 283 kts 307°
2026-05-09 02:16 10.48597 -74.91275 10869 ft 281 kts 307°
2026-05-09 02:16 10.49762 -74.92867 10465 ft 279 kts 307°
2026-05-09 02:16 10.50913 -74.94440 10065 ft 277 kts 307°
2026-05-09 02:17 10.52056 -74.96003 9693 ft 275 kts 307°
2026-05-09 02:17 10.53169 -74.97523 9566 ft 263 kts 307°
2026-05-09 02:17 10.54232 -74.98975 9507 ft 246 kts 307°
2026-05-09 02:17 10.55213 -75.00314 9397 ft 227 kts 307°
2026-05-09 02:18 10.56121 -75.01553 9274 ft 211 kts 307°
2026-05-09 02:18 10.56971 -75.02713 9151 ft 196 kts 307°
2026-05-09 02:18 10.57820 -75.03750 8888 ft 190 kts 318°
2026-05-09 02:18 10.59041 -75.04228 8469 ft 191 kts 356°
2026-05-09 02:19 10.60264 -75.03848 8133 ft 188 kts 34°
2026-05-09 02:19 10.61123 -75.02845 7839 ft 184 kts 55°
2026-05-09 02:19 10.61817 -75.01748 7493 ft 185 kts 58°
2026-05-09 02:19 10.62523 -75.00676 7146 ft 185 kts 52°
2026-05-09 02:20 10.63276 -74.99600 6821 ft 184 kts 56°
2026-05-09 02:20 10.64028 -74.98559 6475 ft 184 kts 47°
2026-05-09 02:20 10.65007 -74.97763 6170 ft 182 kts 36°
2026-05-09 02:20 10.66031 -74.97016 5843 ft 181 kts 35°
2026-05-09 02:21 10.67018 -74.96225 5519 ft 180 kts 40°
2026-05-09 02:21 10.67979 -74.95411 5262 ft 176 kts 39°
2026-05-09 02:21 10.68877 -74.94659 5221 ft 157 kts 39°
2026-05-09 02:21 10.69682 -74.93988 5097 ft 142 kts 39°
2026-05-09 02:22 10.70418 -74.93376 4870 ft 136 kts 39°
2026-05-09 02:22 10.71150 -74.92769 4570 ft 135 kts 39°
2026-05-09 02:22 10.71875 -74.92169 4274 ft 134 kts 39°
2026-05-09 02:22 10.72605 -74.91566 3972 ft 133 kts 39°
2026-05-09 02:23 10.73309 -74.90984 3623 ft 132 kts 39°
2026-05-09 02:23 10.74021 -74.90396 3379 ft 129 kts 39°
2026-05-09 02:23 10.74711 -74.89826 3373 ft 130 kts 39°
2026-05-09 02:23 10.75426 -74.89236 3228 ft 134 kts 39°
2026-05-09 02:24 10.76153 -74.88635 3032 ft 134 kts 39°
2026-05-09 02:24 10.76869 -74.88044 2846 ft 132 kts 39°
2026-05-09 02:24 10.77580 -74.87457 2669 ft 131 kts 39°
2026-05-09 02:24 10.78285 -74.86875 2498 ft 131 kts 39°
2026-05-09 02:25 10.78997 -74.86287 2323 ft 131 kts 39°
2026-05-09 02:25 10.79697 -74.85709 2150 ft 130 kts 39°
2026-05-09 02:25 10.80395 -74.85132 1978 ft 130 kts 39°
2026-05-09 02:25 10.81098 -74.84551 1806 ft 130 kts 39°
2026-05-09 02:26 10.81693 -74.84060 1659 ft 129 kts 39°
2026-05-09 02:26 10.82389 -74.83485 1488 ft 129 kts 39°
2026-05-09 02:26 10.83078 -74.82916 1319 ft 129 kts 39°
2026-05-09 02:26 10.83772 -74.82343 1149 ft 128 kts 39°
2026-05-09 02:27 10.84465 -74.81770 977 ft 128 kts 39°
2026-05-09 02:27 10.85151 -74.81203 808 ft 128 kts 39°
2026-05-09 02:27 10.85845 -74.80630 638 ft 127 kts 39°
2026-05-09 02:27 10.86533 -74.80063 458 ft 128 kts 39°
2026-05-09 02:28 10.87224 -74.79491 315 ft 124 kts 39°
2026-05-09 02:28 10.87904 -74.78925 112 ft 126 kts 39°
2026-05-09 02:28 10.88538 -74.78392 106 ft 99 kts 39°
2026-05-09 02:28 10.88979 -74.78039 106 ft 60 kts 37°
2026-05-09 02:29 10.89155 -74.77903 106 ft 23 kts 37°
2026-05-09 02:29 10.89272 -74.77809 106 ft 18 kts 42°
2026-05-09 02:29 10.89351 -74.77718 106 ft 13 kts 62°
2026-05-09 02:29 10.89361 -74.77639 106 ft 13 kts 94°
2026-05-09 02:30 10.89303 -74.77563 106 ft 15 kts 217°
2026-05-09 02:30 10.89227 -74.77639 106 ft 18 kts 218°
2026-05-09 02:30 10.89104 -74.77737 106 ft 27 kts 218°
2026-05-09 02:30 10.88954 -74.77857 106 ft 19 kts 216°
2026-05-09 02:31 10.88872 -74.77796 106 ft 18 kts 94°
2026-05-09 02:31 10.88872 -74.77764 106 ft 6 kts 90°
2026-05-09 02:31 10.88858 -74.77718 106 ft 2 kts 131°
2026-05-09 02:31 10.88850 -74.77707 106 ft 2 kts 126°
2026-05-09 02:32 10.88843 -74.77697 106 ft 2 kts 126°
2026-05-09 02:32 10.88836 -74.77688 106 ft 0 kts 127°